Location: Zagreb
(45.8000°N, 16.0000°E)
Time: 14:10:58
(UTC+02:00)

Vanguard 1 - Pass Details

Date: 15 August 2022
Orbit: 649 x 3832 km, 34.2° (Epoch: 25 September)

Event Time Altitude Azimuth Distance (km) Brightness Sun altitude
Rises 02:44:57 0° 206° (SSW) 4,861 - -25.6°
Reaches altitude 10° 02:48:11 10° 195° (SSW) 4,262 - -25.4°
Exits shadow 02:53:00 24° 172° (S) 3,771 12.6 -24.9°
Maximum altitude 02:58:31 31° 139° (SE) 3,909 12.9 -24.5°
Drops below altitude 10° 03:14:12 10° 87° (E) 6,550 14.7 -22.9°
Sets 03:20:47 0° 80° (E) 7,846 15.4 -22.3°
